Cienfuegos, Cuba

8:09 AM CST on December 08, 2019 (GMT -0500)
Jaime Gonzalez

Weather History for MUCF - October, 2019

Change the Weather History Date:

Thursday, October 24, 2019

  Actual Average Record
Temperature  
Mean Temperature 82 °F -  
Max Temperature 89 °F - - ()
Min Temperature 75 °F - - ()
Cooling Degree Days 17    
Growing Degree Days 32 (Base 50)    
Moisture  
Dew Point 75 °F    
Average Humidity 82    
Maximum Humidity 100    
Minimum Humidity 62    
Precipitation  
Precipitation 0.00 in - - ()
Sea Level Pressure  
Sea Level Pressure 29.96 in    
Wind  
Wind Speed 6 mph ()    
Max Wind Speed 12 mph    
Max Gust Speed 22 mph    
Visibility 6.2 miles    
Events      
T = Trace of Precipitation, MM = Missing Value Source: Averaged Metar Reports

Daily Weather History Graph

Daily Weather History Graph

Search for Another Location

Airport or City:

Astronomy

Oct. 24, 2019 Rise Set
Actual Time 7:21 AM CDT 6:49 PM CDT
Civil Twilight 6:58 AM CDT 7:12 PM CDT
Nautical Twilight 6:32 AM CDT 7:38 PM CDT
Astronomical Twilight 6:06 AM CDT 8:04 PM CDT
Moon 3:33 AM CDT (10/24) 4:38 PM CDT (10/24)
Length of Visible Light 12h 13m
Length of Day
11h 28m
Waning Crescent, 17% of the Moon is Illuminated
Oct 24
Waning Crescent
Oct 27
New
Nov 4
First Quarter
Nov 12
Full
Nov 19
Last Quarter

Hourly Weather History & Observations

Time (CDT) Temp. Heat Index Dew Point Humidity Pressure Visibility Wind Dir Wind Speed Gust Speed Precip Events Conditions
12:59 AM 77.0 °F - 75.2 °F 94% 29.98 in - NE 5.8 mph - N/A   Unknown
1:59 AM 77.0 °F - 75.2 °F 94% 29.95 in - ENE 6.9 mph - N/A   Unknown
2:59 AM 77.0 °F - 75.2 °F 94% 29.92 in - East 4.6 mph - N/A   Unknown
4:58 AM 77.0 °F - 75.2 °F 94% 29.95 in - ENE 6.9 mph - N/A   Unknown
5:59 AM 75.2 °F - 75.2 °F 100% 29.95 in - NE 5.8 mph - N/A   Unknown
6:58 AM 75.2 °F - 75.2 °F 100% 29.95 in - NE 4.6 mph - N/A   Unknown
7:59 AM 75.2 °F - 75.2 °F 100% 29.98 in - NE 4.6 mph - N/A   Unknown
8:50 AM 78.8 °F - 75.2 °F 89% 29.98 in 6.2 mi ENE 5.8 mph - N/A   Partly Cloudy
9:50 AM 80.6 °F 86.2 °F 75.2 °F 84% 30.01 in 6.2 mi East 8.1 mph - N/A   Partly Cloudy
10:50 AM 84.2 °F 92.3 °F 75.2 °F 74% 30.01 in 6.2 mi Variable 10.4 mph 21.9 mph N/A   Partly Cloudy
11:51 AM 87.8 °F 97.6 °F 75.2 °F 66% 29.98 in 6.2 mi ESE 10.4 mph - N/A   Partly Cloudy
12:50 PM 89.6 °F 99.8 °F 75.2 °F 62% 29.95 in 6.2 mi East 11.5 mph - N/A   Partly Cloudy
1:50 PM 89.6 °F 99.8 °F 75.2 °F 62% 29.92 in 6.2 mi East 9.2 mph - N/A   Partly Cloudy
2:50 PM 89.6 °F 99.8 °F 75.2 °F 62% 29.92 in 6.2 mi East 9.2 mph - N/A   Partly Cloudy
3:50 PM 89.6 °F 99.8 °F 75.2 °F 62% 29.89 in 6.2 mi East 8.1 mph - N/A   Scattered Clouds
4:59 PM 86.0 °F 95.1 °F 75.2 °F 70% 29.89 in - ENE 10.4 mph - N/A   Unknown
5:58 PM 84.2 °F 90.9 °F 73.4 °F 70% 29.92 in - ENE 8.1 mph - N/A   Unknown
6:59 PM 80.6 °F 85.4 °F 73.4 °F 79% 29.92 in - ENE 9.2 mph - N/A   Unknown
7:59 PM 78.8 °F - 73.4 °F 83% 29.95 in - ENE 6.9 mph - N/A   Unknown
8:58 PM 78.8 °F - 73.4 °F 83% 29.98 in - ENE 8.1 mph - N/A   Unknown
9:58 PM 77.0 °F - 73.4 °F 89% 29.98 in - ENE 5.8 mph - N/A   Unknown
10:58 PM 77.0 °F - 73.4 °F 89% 30.01 in - ENE 5.8 mph - N/A   Unknown
11:58 PM 75.2 °F - 73.4 °F 94% 30.01 in - ENE 6.9 mph - N/A   Unknown